Regional Weather Roundup
Issued by NWS

Home | Current Version | Previous Version | Text Only | Print | Product List | Glossary Off
Versions: 1 2 3 4 5 6 7 8 9 10 11 12 13 14 15 16 17 18 19 20 21 22 23 24 25 26 27 28 29 30 31 32 33 34 35 36 37 38 39 40 41 42 43 44 45 46 47 48 49 50

318
ASUS43 KIND 191759
RWRIN

WEATHER ROUNDUP FOR INDIANA
NATIONAL WEATHER SERVICE INDIANAPOLIS IN
100 PM EST SUN NOV 19 2017

NOTE: "FAIR" INDICATES FEW OR NO CLOUDS BELOW 12,000 FEET WITH NO
SIGNIFICANT WEATHER AND/OR OBSTRUCTIONS TO VISIBILITY.

* - STATION DOES NOT REPORT WEATHER SUCH AS PRECIPITATION OR FOG.

+ - STATION NOT QUALITY CONTROLLED BY THE NATIONAL WEATHER SERVICE.
    USE DATA WITH CAUTION...ESPECIALLY DEWPOINT AND RELATIVE
    HUMIDITY OBSERVATIONS.

INZ001>003-010>013-019-020-191900-
NORTHWEST INDIANA

CITY           SKY/WX    TMP DP  RH WIND       PRES   REMARKS
GARY /AIRPORT/ MOSUNNY   36  19  51 W12G23    30.05S WCI  27
KNOX *+        PTSUNNY   32  23  69 W12       30.02S WCI  23
LA PORTE +     CLOUDY    32  20  61 NW12G20   30.02R WCI  23
6HR MIN TEMP:  32; 6HR MAX TEMP:  33;

MICHIGAN CITY+ PTSUNNY   32  21  64 W9G20     30.03S WCI  24
MONTICELLO +   CLOUDY    32  22  67 W14       30.06R WCI  22
6HR MIN TEMP:  31; 6HR MAX TEMP:  34;

RENSSELAER +   CLOUDY    34  25  69 W17       30.07R WCI  23
VALPARAISO     PTSUNNY   36  23  59 W15       30.03S WCI  27
6HR MIN TEMP:  33; 6HR MAX TEMP:  36;


$$

LMZ046-743>745-191900-
SOUTHERN LAKE MICHIGAN

STATION/POSITION TIME  TEMP    WIND        PRES    WAVE
                       AIR SEA DIR/SP/G            HT
                 (UTC) (F)     (DEG/KT/KT) (MB)    (FT)
BURNS HARBOR     1740   33     290/ 14/ 19 1017.6S
MICHIGAN CITY    1730   32     290/ 17/ 20   N/A

$$

INZ004-005-014>016-021>024-191900-
NORTH CENTRAL INDIANA

CITY           SKY/WX    TMP DP  RH WIND       PRES   REMARKS
ELKHART        CLOUDY    32  21  64 W13G21    29.98S WCI  22
GOSHEN         CLOUDY    33  21  61 W13       29.97S WCI  24
6HR MIN TEMP:  33; 6HR MAX TEMP:  36;

PERU/GRISSOM   CLOUDY    32  25  76 W20       30.02S WCI  20
6HR MIN TEMP:  32; 6HR MAX TEMP:  35;

SOUTH BEND     CLOUDY    32  24  72 W13       30.00R WCI  22
6HR MIN TEMP:  32; 6HR MAX TEMP:  35; 6HR PCP: TRACE;

WARSAW +       CLOUDY    32  25  74 W15       29.99S WCI  22

$$

INZ006>009-017-018-025>027-191900-
NORTHEAST INDIANA

CITY           SKY/WX    TMP DP  RH WIND       PRES   REMARKS
AUBURN +       CLOUDY    34  27  75 W14       29.95F WCI  24
FORT WAYNE     CLOUDY    35  28  75 W20       29.96F WCI  24
6HR MIN TEMP:  35; 6HR MAX TEMP:  38;

KENDALLVILLE + CLOUDY    32  26  77 W15G21    29.95R WCI  22

$$

INZ028-029-035-036-043>045-051>053-191900-
WEST CENTRAL INDIANA

CITY           SKY/WX    TMP DP  RH WIND       PRES   REMARKS
LAFAYETTE      CLOUDY    30  23  75 W13G21    30.08S WCI  20
6HR MIN TEMP:  30; 6HR MAX TEMP:  33;

TERRE HAUTE    CLOUDY    33  23  66 W9        30.13F WCI  25
6HR MIN TEMP:  32; 6HR MAX TEMP:  34;


$$

INZ030>032-037>040-046>048-054>057-064-065-191900-
CENTRAL INDIANA

CITY           SKY/WX    TMP DP  RH WIND       PRES   REMARKS
COLUMBUS       PTSUNNY   36  27  69 W17       30.07F WCI  25
GREENWOOD *+   PTSUNNY   37  26  62 W9G21     30.06S WCI  31
INDIANAPOLIS   PTSUNNY   33  23  66 W20       30.07S WCI  21
6HR MIN TEMP:  33; 6HR MAX TEMP:  35;

-EAGLE CREEK   CLOUDY    32  23  69 W12       30.06S WCI  23
6HR MIN TEMP:  32; 6HR MAX TEMP:  35;

KOKOMO +       CLOUDY    31  25  78 W17       30.04S WCI  19
6HR MIN TEMP:  31; 6HR MAX TEMP:  35; 6HR PCP: TRACE;

MT COMFORT *+  CLOUDY    32  27  80 W17G24    30.05S WCI  21
SHELBYVILLE    CLOUDY    37  24  59 W12G21    30.05S WCI  29
6HR MIN TEMP:  35; 6HR MAX TEMP:  37;


$$

INZ033-034-041-042-049-050-058-059-191900-
EAST CENTRAL INDIANA

CITY           SKY/WX    TMP DP  RH WIND       PRES   REMARKS
MUNCIE         CLOUDY    34  24  67 W17G25    30.01S WCI  23
6HR MIN TEMP:  34; 6HR MAX TEMP:  38;

RICHMOND +     CLOUDY    34  28  80 W20G26    29.99F WCI  22

$$

INZ060-061-067>069-081>083-085>088-191900-
SOUTHWEST INDIANA

CITY           SKY/WX    TMP DP  RH WIND       PRES   REMARKS
EVANSVILLE     SUNNY     39  24  55 W12       30.16F WCI  32
6HR MIN TEMP:  34; 6HR MAX TEMP:  39;

HUNTINGBURG +  PTSUNNY   37  26  64 W10       30.14F WCI  30
6HR MIN TEMP:  34; 6HR MAX TEMP:  38;


$$

INZ062-063-066-070>080-084-089>092-191900-
SOUTH CENTRAL AND SOUTHEAST INDIANA

CITY           SKY/WX    TMP DP  RH WIND       PRES   REMARKS
BLOOMINGTON    CLOUDY    35  24  64 W14G22    30.08F WCI  26
6HR MIN TEMP:  33; 6HR MAX TEMP:  35;

MADISON *+     CLOUDY    36  30  80 W8        30.08F WCI  29
SEYMOUR +      CLOUDY    39  27  60 W16       30.08F WCI  30

$$





USA.gov is the U.S. government's official web portal to all federal, state and local government web resources and services.